EW8476 Weather Reports


Display with metric or nautical units.
time (UTC)temp
F
wind
direction
speed
MPH
gust
MPH
rain 1hr
in
rain 24hr
in
rain mn
in
humidity
%
barometer
mb
20260505221614 82 176 6.0 12.0 0.00 0.00 0.00 64 933.8
20260505220544 82 192 5.0 11.0 0.00 0.00 0.00 64 933.9
20260505215551 81 204 7.0 13.0 0.00 0.00 0.00 64 933.9
20260505214516 82 189 6.0 12.0 0.00 0.00 0.00 64 934.0
20260505213613 81 185 4.0 13.0 0.00 0.00 0.00 65 934.1
20260505212631 81 211 9.0 14.0 0.00 0.00 0.00 64 934.3
20260505211538 82 187 7.0 13.0 0.00 0.00 0.00 63 934.3
20260505210529 82 174 6.0 14.0 0.00 0.00 0.00 63 934.3
20260505205654 82 201 7.0 12.0 0.00 0.00 0.00 63 934.5
20260505204557 82 199 6.0 13.0 0.00 0.00 0.00 62 934.4
20260505203553 82 199 5.0 13.0 0.00 0.00 0.00 62 934.7
20260505202537 82 207 5.0 11.0 0.00 0.00 0.00 62 934.6
20260505201610 82 202 8.0 16.0 0.00 0.00 0.00 62 934.9
20260505200555 82 204 6.0 14.0 0.00 0.00 0.00 62 934.7
20260505195542 81 195 5.0 11.0 0.00 0.00 0.00 63 935.0
20260505194611 81 220 8.0 13.0 0.00 0.00 0.00 61 934.9
20260505193600 81 220 8.0 11.0 0.00 0.00 0.00 62 935.1
20260505192557 81 202 9.0 15.0 0.00 0.00 0.00 64 934.9
20260505191529 80 198 10.0 14.0 0.00 0.00 0.00 64 935.0
20260505190527 80 211 10.0 16.0 0.00 0.00 0.00 65 935.2
20260505185605 79 221 9.0 15.0 0.00 0.00 0.00 65 935.2
20260505184551 79 227 8.0 13.0 0.00 0.00 0.00 66 935.3
20260505183533 79 235 7.0 12.0 0.00 0.00 0.00 66 935.5
20260505182519 79 218 6.0 10.0 0.00 0.00 0.00 68 935.6
20260505181634 78 206 8.0 12.0 0.00 0.00 0.00 69 935.6
20260505180649 78 237 7.0 12.0 0.00 0.00 0.00 70 935.8
20260505175527 77 213 10.0 13.0 0.00 0.00 0.00 71 935.8
20260505174603 77 213 8.0 13.0 0.00 0.00 0.00 73 935.8
20260505173552 76 231 9.0 14.0 0.00 0.00 0.00 74 935.8
20260505172636 75 211 8.0 14.0 0.00 0.00 0.00 75 935.8
20260505171540 75 214 10.0 15.0 0.00 0.00 0.00 75 935.9
20260505170603 74 205 8.0 14.0 0.00 0.00 0.00 77 936.0
20260505165553 74 220 9.0 13.0 0.00 0.00 0.00 79 936.1
20260505164536 73 230 8.0 13.0 0.00 0.00 0.00 80 935.8
20260505163519 73 231 7.0 15.0 0.00 0.00 0.00 81 935.7
20260505162610 72 223 9.0 14.0 0.00 0.00 0.00 82 935.6
20260505161559 71 229 10.0 14.0 0.00 0.00 0.00 83 935.5
20260505160608 71 229 9.0 15.0 0.00 0.00 0.00 84 935.4
20260505152543 69 209 14.0 20.0 0.00 0.00 0.00 88 935.4
20260505151526 69 220 10.0 17.0 0.00 0.00 0.00 90 935.4
20260505150618 68 208 12.0 17.0 0.00 0.00 0.00 91 935.3
20260505140543 66 202 10.0 17.0 0.00 0.00 0.00 96 934.9
20260505124652 67 203 11.0 18.0 0.00 0.00 0.00 95 934.4
20260505123526 66 201 12.0 19.0 0.00 0.00 0.00 95 934.2
20260505122606 66 201 10.0 19.0 0.00 0.00 0.00 95 934.0
20260505121554 66 189 11.0 19.0 0.00 0.00 0.00 95 933.9
20260505120533 66 197 14.0 23.0 0.00 0.00 0.00 96 933.9
20260505115610 66 189 15.0 21.0 0.00 0.00 0.00 95 933.7
20260505114557 66 200 11.0 23.0 0.00 0.00 0.00 95 933.6
20260505113609 66 201 11.0 19.0 0.00 0.00 0.00 94 933.6
20260505112530 66 197 13.0 20.0 0.00 0.00 0.00 94 933.5
20260505111612 66 191 14.0 21.0 0.00 0.00 0.00 94 933.6
20260505110626 66 188 12.0 19.0 0.00 0.00 0.00 94 933.8
20260505101551 66 190 13.0 21.0 0.00 0.00 0.00 93 933.7
20260505100545 66 180 11.0 21.0 0.00 0.00 0.00 93 933.7
20260505095519 66 183 16.0 27.0 0.00 0.00 0.00 93 933.8
20260505094716 66 189 12.0 23.0 0.00 0.00 0.00 93 933.6
20260505093556 67 192 16.0 24.0 0.00 0.00 0.00 93 933.7
20260505092547 67 190 16.0 22.0 0.00 0.00 0.00 92 933.8
20260505091522 67 185 14.0 24.0 0.00 0.00 0.00 92 933.8
20260505090603 67 185 14.0 28.0 0.00 0.00 0.00 92 933.8
20260505085551 67 188 14.0 22.0 0.00 0.00 0.00 92 933.9
20260505084537 67 191 18.0 25.0 0.00 0.00 0.00 91 933.8
20260505083539 67 182 15.0 26.0 0.00 0.00 0.00 91 934.1
20260505082606 67 181 16.0 23.0 0.00 0.00 0.00 91 934.0
20260505081551 67 179 17.0 30.0 0.00 0.00 0.00 91 934.5
20260505080533 67 174 15.0 27.0 0.00 0.00 0.00 91 934.3
20260505075520 67 180 14.0 26.0 0.00 0.00 0.00 91 934.2
20260505074611 67 179 18.0 26.0 0.00 0.00 0.00 91 934.2
20260505073605 67 181 17.0 29.0 0.00 0.00 0.00 91 934.3
20260505072523 67 180 16.0 27.0 0.00 0.00 0.00 91 934.5
20260505071650 67 182 17.0 26.0 0.00 0.00 0.00 91 934.3
20260505070605 67 175 15.0 28.0 0.00 0.00 0.00 90 934.5
20260505065553 67 176 16.0 26.0 0.00 0.00 0.00 91 934.6
20260505064538 66 182 15.0 26.0 0.00 0.00 0.00 91 934.6
20260505063608 66 175 16.0 24.0 0.00 0.00 0.00 91 934.6
20260505062556 67 177 14.0 21.0 0.00 0.00 0.00 90 934.9
20260505061538 67 172 14.0 22.0 0.00 0.00 0.00 89 935.1
20260505060528 67 181 17.0 22.0 0.00 0.00 0.00 88 935.1
20260505055517 67 176 14.0 22.0 0.00 0.00 0.00 87 935.0
20260505054615 67 175 13.0 22.0 0.00 0.00 0.00 86 935.2
20260505053552 67 175 14.0 20.0 0.00 0.00 0.00 85 935.2
20260505052526 67 173 12.0 19.0 0.00 0.00 0.00 83 935.2
20260505051615 67 180 11.0 18.0 0.00 0.00 0.00 83 935.2
20260505050606 68 183 11.0 18.0 0.00 0.00 0.00 81 935.4
20260505041558 68 189 9.0 16.0 0.00 0.00 0.00 80 935.4
20260505040532 68 186 10.0 14.0 0.00 0.00 0.00 80 935.4
20260505035517 68 177 9.0 13.0 0.00 0.00 0.00 80 935.4
20260505034608 69 179 9.0 14.0 0.00 0.00 0.00 79 935.3
20260505033535 69 181 9.0 15.0 0.00 0.00 0.00 79 935.2
20260505032539 69 184 11.0 16.0 0.00 0.00 0.00 79 935.2
20260505031642 69 187 11.0 15.0 0.00 0.00 0.00 79 935.2
20260505030554 69 177 11.0 16.0 0.00 0.00 0.00 79 935.1
20260505025539 69 176 11.0 15.0 0.00 0.00 0.00 79 934.9
20260505024617 69 178 9.0 16.0 0.00 0.00 0.00 78 934.7
20260505023640 69 173 8.0 15.0 0.00 0.00 0.00 77 934.7
20260505022553 70 185 12.0 16.0 0.00 0.00 0.00 76 934.9
20260505021546 70 182 12.0 18.0 0.00 0.00 0.00 76 934.8
20260505020553 71 184 14.0 20.0 0.00 0.00 0.00 74 934.8
20260505015518 70 184 11.0 21.0 0.00 0.00 0.00 75 934.8
20260505014603 71 186 12.0 20.0 0.00 0.00 0.00 74 934.8
20260505013553 71 186 14.0 19.0 0.00 0.00 0.00 73 934.7
20260505012535 71 188 13.0 21.0 0.00 0.00 0.00 73 934.5
20260505011516 71 179 9.0 15.0 0.00 0.00 0.00 72 934.7
20260505010607 72 186 11.0 17.0 0.00 0.00 0.00 71 934.8
20260505005551 72 187 10.0 18.0 0.00 0.00 0.00 71 935.1
20260505004537 73 180 12.0 19.0 0.00 0.00 0.00 70 934.9
20260505003523 73 187 13.0 21.0 0.00 0.00 0.00 68 935.0
20260505002615 74 197 12.0 21.0 0.00 0.00 0.00 67 935.2
20260505001559 74 187 10.0 20.0 0.00 0.00 0.00 67 935.1
20260505000539 74 182 12.0 20.0 0.00 0.00 0.00 66 934.9
20260504235518 75 192 14.0 20.0 0.00 0.00 0.00 65 934.9
20260504234606 75 187 15.0 21.0 0.00 0.00 0.00 65 935.0
20260504233552 75 188 14.0 23.0 0.00 0.00 0.00 65 934.9
20260504232538 75 185 14.0 21.0 0.00 0.00 0.00 65 935.1
20260504231515 75 182 11.0 19.0 0.00 0.00 0.00 65 934.9
20260504230623 75 200 15.0 22.0 0.00 0.00 0.00 63 934.9
20260504225544 76 180 11.0 19.0 0.00 0.00 0.00 63 935.2
20260504224531 76 187 13.0 21.0 0.00 0.00 0.00 64 935.4
20260504223612 75 183 15.0 23.0 0.00 0.00 0.00 63 935.3
20260504222620 76 196 13.0 21.0 0.00 0.00 0.00 62 935.5